[[{"header":{"parameterUnit":"m.s-1","parameterCategory":1,"la1":30.2991,"la2":30.254,"lo1":-89.0895,"lo2":-89.0444,"dy":0.0017,"dx":0.0017,"nx":28,"ny":28,"refTime":"2024-05-15T21:00:00:Z","depth":0,"parameterNumber":2,"parameterNumberName":"U-component_of_WINDS"},"data":[0,0,0,0,0,0,0,0,0,0,0,0,0,0,0,0,0,0,0,0,0,0,0,0,0,0,0,0,0,0,0,0,0,0,0,0,0,0,0,0,0,0,0,0,0,0,0,0,0,0,0,0,0,0,0,0,0,0,-1.1077,-1.1076,0,-1.1061,-1.1061,-1.1061,-1.102,-1.102,-1.1019,-1.1018,-1.1003,-1.1003,-1.1004,0,0,0,0,0,0,0,0,0,0,0,0,0,-1.1071,-1.1071,-1.1077,-1.1076,-1.1076,-1.1061,-1.1061,-1.1061,-1.1021,-1.102,-1.1018,-1.1017,-1.1003,-1.1003,-1.1004,0,0,0,0,0,0,0,0,0,0,0,0,0,-1.1066,-1.1071,-1.1077,-1.1054,-1.1052,-1.1061,-1.1061,-1.1061,-1.1021,-1.102,-1.1018,-1.1017,-1.1002,-1.1003,-1.1004,-1.1033,0,0,-1.1006,-1.1006,0,0,0,0,0,0,0,0,-1.1067,-1.1066,-1.1058,-1.1056,-1.1053,-1.1041,-1.1053,-1.1052,-1.1021,-1.1033,-1.1018,-1.1016,-1.1017,-1.1016,-1.1016,-1.1033,-1.1032,-1.1006,-1.1006,-1.1006,-1.1006,0,0,0,0,0,0,0,-1.1067,-1.1067,-1.1071,-1.1058,-1.1055,-1.1045,-1.1043,-1.1053,-1.1032,-1.1032,-1.1029,-1.1027,-1.1015,-1.1016,-1.1015,-1.1032,-1.1006,-1.1006,-1.1006,-1.1007,-1.1071,-1.1072,0,0,0,0,0,0,-1.107,-1.1067,-1.1071,-1.107,-1.1057,-1.1046,-1.1044,-1.1047,-1.1032,-1.1029,-1.1028,-1.1026,-1.1015,-1.1015,-1.1015,-1.1048,-1.1006,-1.1007,-1.1007,-1.1069,-1.1071,-1.1072,0,0,0,0,0,0,-1.107,-1.1071,-1.1072,-1.1068,-1.1067,-1.1048,-1.1051,-1.1047,-1.1047,-1.103,-1.1026,-1.1033,-1.1014,-1.1014,-1.1029,-1.1047,-1.1007,-1.1008,-1.1068,-1.107,-1.1072,-1.1114,0,0,0,0,0,0,-1.107,-1.1071,-1.1083,-1.1068,-1.1068,-1.1086,-1.1052,-1.1048,-1.1048,-1.1044,-1.1032,-1.1029,-1.1013,-1.1028,-1.1029,-1.1047,-1.1008,-1.1066,-1.1069,-1.1071,-1.1111,-1.1118,-1.1123,0,0,0,0,0,-1.107,-1.1096,-1.1083,-1.1084,-1.1081,-1.1087,-1.1087,-1.1068,-1.105,-1.1061,-1.1049,-1.103,-1.1045,-1.103,-1.1031,-1.1049,-1.1065,-1.1068,-1.1071,-1.1109,-1.1116,-1.1123,0,0,0,0,0,0,-1.1113,-1.1094,-1.108,-1.1101,-1.1096,-1.108,-1.1094,-1.1077,-1.1077,-1.1073,-1.1049,-1.1047,-1.1065,-1.1058,-1.1042,-1.1076,-1.1051,-1.1055,-1.108,-1.1087,-1.1093,-1.1094,-1.1009,0,0,0,0,0,-1.1125,-1.1131,-1.1114,-1.1135,-1.1133,-1.1114,-1.1116,-1.1101,-1.1095,-1.1093,-1.1083,-1.1077,-1.1081,-1.1084,-1.1086,-1.111,-1.1106,-1.1123,-1.1129,-1.1134,-1.1137,-1.1148,-1.1155,-1.1082,-1.1082,-1.1082,0,0,-1.115,-1.114,-1.1145,-1.1143,-1.1137,-1.1144,-1.1112,-1.1121,-1.1126,-1.1094,-1.1107,-1.11,-1.1092,-1.1112,-1.112,-1.1107,-1.1156,-1.1138,-1.1142,-1.1142,-1.1152,-1.1159,-1.1165,-1.1084,-1.1084,-1.1084,0,0,-1.1198,-1.1191,-1.1207,-1.1202,-1.1194,-1.1181,-1.1185,-1.1171,-1.1165,-1.1177,-1.1153,-1.1159,-1.1165,-1.1161,-1.1159,-1.1205,-1.1186,-1.1206,-1.1237,-1.1248,-1.1254,-1.1258,-1.1274,-1.128,-1.1209,-1.1209,-1.1209,0,-1.123,-1.1239,-1.1218,-1.1228,-1.1227,-1.1198,-1.1214,-1.121,-1.1203,-1.1203,-1.1189,-1.1195,-1.1189,-1.1206,-1.1217,-1.1217,-1.122,-1.1207,-1.1254,-1.1259,-1.1263,-1.1278,-1.1284,-1.1212,-1.1212,-1.1211,-1.1211,0,-1.1278,-1.1285,-1.1299,-1.1292,-1.1293,-1.1306,-1.1287,-1.129,-1.1275,-1.1264,-1.1276,-1.1267,-1.1266,-1.1269,-1.1255,-1.1284,-1.1276,-1.1259,-1.1233,-1.1273,-1.1286,-1.1291,-1.1215,-1.1214,-1.1214,-1.1213,0,0,-1.1354,-1.1334,-1.1339,-1.1335,-1.1324,-1.1329,-1.134,-1.1339,-1.1342,-1.1338,-1.1346,-1.1352,-1.1335,-1.1333,-1.1318,-1.1328,-1.1364,-1.1309,-1.1308,-1.1319,-1.1394,-1.1407,-1.1414,-1.1351,-1.1352,-1.1353,-1.1394,0,-1.1399,-1.1417,-1.1397,-1.1419,-1.1425,-1.1397,-1.1406,-1.14,-1.1389,-1.1392,-1.1381,-1.1385,-1.1362,-1.1361,-1.137,-1.1358,-1.1378,-1.1354,-1.1358,-1.1359,-1.136,-1.142,-1.1434,-1.1474,-1.1399,-1.14,-1.1401,0,-1.1454,-1.1451,-1.1474,-1.1459,-1.1461,-1.147,-1.1467,-1.147,-1.1462,-1.1454,-1.1451,-1.1433,-1.1442,-1.1418,-1.143,-1.1414,-1.1414,-1.1409,-1.141,-1.1409,-1.1382,-1.1421,-1.1486,-1.1492,-1.1409,-1.1408,-1.1407,0,-1.1505,-1.1508,-1.1521,-1.1519,-1.1503,-1.151,-1.1503,-1.1494,-1.1494,-1.1491,-1.1491,-1.1489,-1.1488,-1.1487,-1.1469,-1.1453,-1.1483,-1.1457,-1.1475,-1.1476,-1.1483,-1.1483,-1.1549,-1.1484,-1.1484,-1.1484,-1.1484,0,-1.1557,-1.1572,-1.1544,-1.1552,-1.1568,-1.1545,-1.1561,-1.1551,-1.1543,-1.1548,-1.1524,-1.153,-1.1505,-1.1508,-1.1494,-1.1506,-1.1506,-1.1498,-1.1494,-1.15,-1.1501,-1.15,-1.1496,-1.1486,-1.1485,-1.1485,-1.1485,0,-1.1617,-1.16,-1.1612,-1.1595,-1.1592,-1.1603,-1.1589,-1.1596,-1.1583,-1.159,-1.1591,-1.1571,-1.1573,-1.1554,-1.1553,-1.1543,-1.1561,-1.1553,-1.1564,-1.1561,-1.158,-1.1578,-1.1647,-1.1654,-1.1587,-1.1587,-1.1588,0,-1.1652,-1.1662,-1.1646,-1.1648,-1.1642,-1.1646,-1.1646,-1.1624,-1.1624,-1.1615,-1.1623,-1.1623,-1.1621,-1.1626,-1.1611,-1.161,-1.16,-1.1624,-1.16,-1.1605,-1.1599,-1.1599,-1.1599,-1.163,-1.163,-1.1631,-1.1632,0,-1.1714,-1.1704,-1.1704,-1.1702,-1.1702,-1.1699,-1.1694,-1.1697,-1.1672,-1.1674,-1.1676,-1.1675,-1.1673,-1.1673,-1.1668,-1.1661,-1.1642,-1.1639,-1.1643,-1.1649,-1.1655,-1.1651,-1.1577,-1.1638,-1.1637,-1.1637,-1.1637,-1.1636,-1.1761,-1.1769,-1.1758,-1.1759,-1.1753,-1.1749,-1.1754,-1.1742,-1.1742,-1.1739,-1.1726,-1.1729,-1.172,-1.1711,-1.1706,-1.1708,-1.1696,-1.1702,-1.1704,-1.1705,-1.1708,-1.1655,-1.1707,-1.1707,-1.1707,-1.1707,-1.1707,0,-1.1821,-1.1813,-1.1814,-1.1807,-1.1808,-1.179,-1.1783,-1.1785,-1.1788,-1.1781,-1.178,-1.1781,-1.1781,-1.1765,-1.1763,-1.1767,-1.1758,-1.1767,-1.1766,-1.1765,-1.172,-1.1716,-1.1774,-1.1774,-1.1774,-1.1774,-1.1774,-1.1774,-1.1852,-1.1864,-1.1853,-1.186,-1.1852,-1.1855,-1.1852,-1.1848,-1.1842,-1.1844,-1.1843,-1.1833,-1.1823,-1.1819,-1.1817,-1.1813,-1.1812,-1.1824,-1.1817,-1.1775,-1.1768,-1.1762,-1.1758,-1.1825,-1.1825,-1.1861,-1.1862,-1.1862]},{"header":{"parameterUnit":"m.s-1","parameterCategory":1,"la1":30.2991,"la2":30.254,"lo1":-89.0895,"lo2":-89.0444,"dy":0.0017,"dx":0.0017,"nx":28,"ny":28,"refTime":"2024-05-15T21:00:00:Z","depth":0,"parameterNumber":3,"parameterNumberName":"V-component_of_WINDS"},"data":[0,0,0,0,0,0,0,0,0,0,0,0,0,0,0,0,0,0,0,0,0,0,0,0,0,0,0,0,0,0,0,0,0,0,0,0,0,0,0,0,0,0,0,0,0,0,0,0,0,0,0,0,0,0,0,0,0,0,-0.8798,-0.8798,0,-0.8825,-0.8826,-0.8826,-0.8847,-0.8847,-0.8847,-0.8847,-0.8875,-0.8875,-0.8876,0,0,0,0,0,0,0,0,0,0,0,0,0,-0.8761,-0.8762,-0.8798,-0.8798,-0.8798,-0.8825,-0.8826,-0.8826,-0.8847,-0.8847,-0.8847,-0.8847,-0.8875,-0.8875,-0.8876,0,0,0,0,0,0,0,0,0,0,0,0,0,-0.8782,-0.8762,-0.8798,-0.8812,-0.8814,-0.8825,-0.8826,-0.8826,-0.8847,-0.8847,-0.8847,-0.8847,-0.8875,-0.8875,-0.8876,-0.8876,0,0,-0.8879,-0.8879,0,0,0,0,0,0,0,0,-0.8781,-0.8783,-0.881,-0.8811,-0.8813,-0.8833,-0.8823,-0.8843,-0.8847,-0.8834,-0.8847,-0.8848,-0.8861,-0.8863,-0.8867,-0.8877,-0.8878,-0.8879,-0.8879,-0.888,-0.888,0,0,0,0,0,0,0,-0.8779,-0.8782,-0.8809,-0.881,-0.8812,-0.8817,-0.882,-0.8827,-0.8845,-0.8835,-0.8837,-0.884,-0.8862,-0.8866,-0.8868,-0.8879,-0.8879,-0.888,-0.888,-0.888,-0.8888,-0.8888,0,0,0,0,0,0,-0.8776,-0.8781,-0.8808,-0.881,-0.8797,-0.8817,-0.8821,-0.8826,-0.8845,-0.8849,-0.8839,-0.8841,-0.8865,-0.8867,-0.8869,-0.8869,-0.888,-0.888,-0.8881,-0.8888,-0.8888,-0.8888,0,0,0,0,0,0,-0.8775,-0.8778,-0.8807,-0.8796,-0.88,-0.8817,-0.8823,-0.8827,-0.8831,-0.8849,-0.8852,-0.8841,-0.8865,-0.8868,-0.8874,-0.887,-0.8881,-0.8882,-0.8889,-0.8888,-0.8888,-0.8869,0,0,0,0,0,0,-0.8774,-0.8778,-0.8778,-0.8795,-0.88,-0.8811,-0.8823,-0.8827,-0.8833,-0.8835,-0.8851,-0.8854,-0.8866,-0.8872,-0.8875,-0.8872,-0.8882,-0.8889,-0.8889,-0.8888,-0.887,-0.8868,-0.8866,0,0,0,0,0,-0.8772,-0.8772,-0.8778,-0.8781,-0.8801,-0.8811,-0.8814,-0.8827,-0.8833,-0.8833,-0.8844,-0.8853,-0.887,-0.8873,-0.8875,-0.8873,-0.8889,-0.8889,-0.8888,-0.8871,-0.8868,-0.8866,0,0,0,0,0,0,-0.8753,-0.8774,-0.8781,-0.8786,-0.8797,-0.8814,-0.8815,-0.8824,-0.8833,-0.8834,-0.8851,-0.8854,-0.8858,-0.8866,-0.8868,-0.8873,-0.8881,-0.8881,-0.8867,-0.8865,-0.8863,-0.8861,-0.8883,0,0,0,0,0,-0.875,-0.8756,-0.8774,-0.8777,-0.8782,-0.8797,-0.8802,-0.8812,-0.8823,-0.8827,-0.8839,-0.8849,-0.8857,-0.8861,-0.8869,-0.8871,-0.8875,-0.8871,-0.8869,-0.8867,-0.8867,-0.8867,-0.8865,-0.8885,-0.8885,-0.8886,0,0,-0.8743,-0.8755,-0.8758,-0.8773,-0.8783,-0.8788,-0.8801,-0.8807,-0.8811,-0.8828,-0.8834,-0.8843,-0.8855,-0.8859,-0.8861,-0.8866,-0.8862,-0.8866,-0.8865,-0.8865,-0.8866,-0.8864,-0.8862,-0.8885,-0.8885,-0.8885,0,0,-0.8732,-0.8742,-0.8745,-0.8754,-0.8767,-0.8778,-0.8778,-0.8794,-0.8801,-0.8807,-0.8819,-0.8825,-0.8838,-0.8845,-0.8851,-0.8842,-0.8851,-0.8845,-0.8834,-0.8835,-0.8833,-0.8832,-0.8827,-0.8826,-0.8844,-0.8844,-0.8844,0,-0.8721,-0.8731,-0.8745,-0.875,-0.8756,-0.8772,-0.8774,-0.8782,-0.8797,-0.8801,-0.8806,-0.8821,-0.8831,-0.8836,-0.8834,-0.8838,-0.8839,-0.8843,-0.8832,-0.8831,-0.883,-0.8826,-0.8824,-0.8843,-0.8843,-0.8843,-0.8843,0,-0.8716,-0.8722,-0.8723,-0.8737,-0.8743,-0.8747,-0.8761,-0.8766,-0.8774,-0.8784,-0.8789,-0.8801,-0.8811,-0.8813,-0.8822,-0.8819,-0.8821,-0.8829,-0.8838,-0.8827,-0.8823,-0.8822,-0.8842,-0.8842,-0.8842,-0.8843,0,0,-0.8695,-0.8716,-0.8716,-0.8722,-0.8738,-0.8742,-0.8746,-0.8756,-0.8759,-0.8769,-0.8772,-0.8782,-0.8789,-0.8795,-0.8805,-0.8805,-0.8796,-0.8813,-0.8813,-0.8808,-0.8792,-0.8785,-0.8783,-0.8802,-0.8802,-0.8802,-0.879,0,-0.8686,-0.8694,-0.8707,-0.871,-0.8715,-0.873,-0.8733,-0.8742,-0.8751,-0.8757,-0.8766,-0.8773,-0.8782,-0.8786,-0.8787,-0.8797,-0.8793,-0.8798,-0.8804,-0.8804,-0.8799,-0.8782,-0.8775,-0.8764,-0.8789,-0.8789,-0.8789,0,-0.8677,-0.8685,-0.8689,-0.8703,-0.8706,-0.8709,-0.8718,-0.8723,-0.8734,-0.874,-0.8747,-0.8757,-0.8761,-0.8769,-0.8774,-0.8778,-0.8781,-0.8786,-0.8786,-0.8786,-0.8795,-0.8781,-0.8761,-0.8759,-0.8787,-0.8787,-0.8787,0,-0.866,-0.8672,-0.8676,-0.868,-0.8697,-0.8698,-0.8705,-0.8716,-0.8721,-0.8729,-0.8732,-0.874,-0.8745,-0.8751,-0.8763,-0.8768,-0.8766,-0.8776,-0.877,-0.877,-0.8769,-0.8768,-0.8748,-0.8772,-0.8772,-0.8772,-0.8772,0,-0.8648,-0.865,-0.8668,-0.867,-0.8672,-0.8686,-0.8687,-0.8695,-0.8705,-0.8708,-0.8721,-0.8724,-0.874,-0.8745,-0.8754,-0.8756,-0.8758,-0.8763,-0.8765,-0.8761,-0.876,-0.8763,-0.8763,-0.8772,-0.8772,-0.8772,-0.8772,0,-0.8629,-0.8641,-0.8646,-0.8661,-0.8665,-0.8665,-0.8678,-0.868,-0.8689,-0.8693,-0.8695,-0.8709,-0.8715,-0.8728,-0.8737,-0.8744,-0.8743,-0.8748,-0.8739,-0.874,-0.8734,-0.8734,-0.8714,-0.8711,-0.8738,-0.8738,-0.8737,0,-0.862,-0.8622,-0.8636,-0.864,-0.8646,-0.8651,-0.8655,-0.8669,-0.8673,-0.8685,-0.8685,-0.8692,-0.8698,-0.8707,-0.8718,-0.8724,-0.8729,-0.8721,-0.873,-0.8725,-0.8727,-0.8727,-0.8726,-0.8719,-0.8719,-0.8718,-0.8718,0,-0.8603,-0.8609,-0.8615,-0.8623,-0.8628,-0.8635,-0.8642,-0.8644,-0.8659,-0.8663,-0.8669,-0.8674,-0.8683,-0.8689,-0.8697,-0.8704,-0.8713,-0.8715,-0.8714,-0.871,-0.8704,-0.8706,-0.8733,-0.8716,-0.8716,-0.8716,-0.8716,-0.8716,-0.8589,-0.859,-0.86,-0.8606,-0.8613,-0.8619,-0.8621,-0.8631,-0.8636,-0.8644,-0.8652,-0.8657,-0.8666,-0.8678,-0.8684,-0.8688,-0.8692,-0.8691,-0.8691,-0.869,-0.8687,-0.8704,-0.8689,-0.869,-0.869,-0.869,-0.869,0,-0.8571,-0.8578,-0.8583,-0.8593,-0.8597,-0.8606,-0.8614,-0.8617,-0.8621,-0.8629,-0.8635,-0.8641,-0.8646,-0.8657,-0.8664,-0.8664,-0.8669,-0.8666,-0.8665,-0.8666,-0.8684,-0.8683,-0.8662,-0.8662,-0.8662,-0.8662,-0.8662,-0.8662,-0.8563,-0.8565,-0.8571,-0.8577,-0.8584,-0.8588,-0.8592,-0.8598,-0.8604,-0.861,-0.8615,-0.8622,-0.8631,-0.8638,-0.8643,-0.8646,-0.8647,-0.8642,-0.8647,-0.8663,-0.8665,-0.8668,-0.8667,-0.8643,-0.8643,-0.8629,-0.8629,-0.8629]}]]